DW0980 Weather Reports


Display with metric or nautical units.
time (UTC)temp
F
wind
direction
speed
MPH
gust
MPH
rain 1hr
in
rain 24hr
in
rain mn
in
humidity
%
barometer
mb
20260504181552 69 261 7.0 21.0 0.00 0.00 0.00 38 1005.2
20260504180049 67 265 11.0 20.0 0.00 0.00 0.00 39 1005.4
20260504174554 68 248 13.0 20.0 0.00 0.00 0.00 38 1005.4
20260504173047 68 259 4.0 20.0 0.00 0.00 0.00 39 1005.5
20260504171546 68 242 12.0 20.0 0.00 0.00 0.00 38 1005.5
20260504081554 39 250 0.0 7.0 0.00 0.00 0.00 85 1008.8
20260504044525 29 290 0.0 0.0 0.00 0.01 0.00 89 1008.7
20260504043024 30 290 0.0 0.0 0.00 0.01 0.00 89 1008.7
20260504041521 30 290 0.0 0.0 0.00 0.01 0.00 88 1008.7
20260504040018 31 290 0.0 0.0 0.00 0.01 0.01 88 1008.6
20260504034516 31 290 0.0 0.0 0.00 0.01 0.01 88 1008.6
20260504033015 31 290 0.0 0.0 0.00 0.01 0.01 87 1008.6
20260504031514 32 290 0.0 0.0 0.00 0.01 0.01 86 1008.6
20260504030014 32 290 0.0 0.0 0.00 0.03 0.01 86 1008.6
20260504024510 33 290 0.0 0.0 0.00 0.03 0.01 85 1008.5
20260504023010 34 290 0.0 0.0 0.00 0.03 0.01 82 1008.5
20260504021509 35 290 0.0 0.0 0.00 0.03 0.01 82 1008.6
20260504020002 35 290 0.0 0.0 0.00 0.03 0.01 80 1008.5
20260504014607 36 290 0.0 0.0 0.00 0.03 0.01 78 1008.4
20260504013057 37 290 0.0 0.0 0.00 0.03 0.01 77 1008.3
20260504011553 38 290 0.0 0.0 0.00 0.03 0.01 77 1008.2
20260504010059 39 290 0.0 0.0 0.00 0.03 0.01 71 1008.0
20260504004553 41 290 0.0 0.0 0.00 0.03 0.01 68 1007.9
20260504003053 42 290 0.0 0.0 0.00 0.03 0.01 65 1007.6
20260504001558 44 290 0.0 0.0 0.00 0.03 0.01 63 1007.6
20260504000058 45 290 0.0 0.0 0.00 0.04 0.01 60 1007.4
20260503234551 46 290 0.0 4.0 0.00 0.04 0.01 56 1007.2
20260503233052 47 290 0.0 0.0 0.00 0.04 0.01 54 1007.2
20260503231550 48 310 1.0 12.0 0.00 0.04 0.01 51 1007.0
20260503230109 48 248 0.0 11.0 0.00 0.05 0.01 52 1006.9
20260503224548 49 252 0.0 9.0 0.00 0.05 0.01 51 1006.8
20260503223106 49 313 0.0 5.0 0.00 0.05 0.01 52 1006.8
20260503221552 49 294 1.0 9.0 0.00 0.05 0.01 50 1006.6
20260503220050 49 294 0.0 15.0 0.00 0.10 0.01 51 1006.5
20260503214554 50 296 2.0 13.0 0.00 0.10 0.01 49 1006.3
20260503213049 50 265 0.0 15.0 0.00 0.10 0.01 50 1006.2
20260503211544 50 281 2.0 17.0 0.00 0.10 0.01 48 1006.1
20260503210043 51 322 0.0 14.0 0.00 0.11 0.01 51 1006.0
20260503210014 51 329 0.0 9.0 0.00 0.11 0.01 50 1006.0
20260503204545 50 336 0.0 9.0 0.00 0.11 0.01 48 1005.8
20260503203046 50 350 0.0 9.0 0.00 0.11 0.01 49 1005.8
20260503201547 51 360 3.0 10.0 0.00 0.11 0.01 46 1005.5
20260503200043 51 27 1.0 12.0 0.00 0.15 0.01 47 1005.6
20260503194641 51 348 1.0 12.0 0.00 0.15 0.01 48 1005.7
20260503193039 51 360 5.0 20.0 0.00 0.15 0.01 47 1005.7
20260503191537 51 329 1.0 12.0 0.00 0.15 0.01 48 1005.7
20260503190045 52 355 2.0 9.0 0.00 0.15 0.01 48 1005.6
20260503184536 52 325 0.0 11.0 0.00 0.15 0.01 50 1005.6
20260503183040 52 336 1.0 8.0 0.00 0.15 0.01 51 1005.6